Location: Beadle
(51.4667°N, 109.0000°W)
Time: 08:59:41
(UTC+00:00)

deb Explorer IX - Pass Details

Date: 29 May 2022
Orbit: 535 x 1068 km, 38.8° (Epoch: 04 July)

Event Time Altitude Azimuth Distance (km) Brightness Sun altitude
Rises 20:50:22 0° 257° (WSW) 3,719 ? 54.8°
Reaches altitude 10° 20:53:48 10° 243° (WSW) 2,688 ? 54.5°
Maximum altitude 20:58:25 21° 197° (SSW) 1,893 ? 54.0°
Drops below altitude 10° 21:02:38 10° 150° (SSE) 2,417 ? 53.5°
Sets 21:05:32 0° 134° (SE) 3,244 ? 53.2°
